Total_Precipitation_Accumulation
0.12 0.19 0.23 0.28 0.23 0.17 0.14 0.15 0.24 0.31 0.44 0.54 0.54 0.66 0.92 0.78 0.66 0.53 0.55 0.47 0.45 0.50 0.58 0.61 0.69 0.72 0.77 0.88 1.01 1.11 1.23 1.43 1.71 1.95 1.77 1.51 1.47 1.44 1.40 1.49 1.60 1.86 2.02 2.12
0.12 0.16 0.20 0.24 0.26 0.19 0.16 0.14 0.13 0.25 0.43 0.52 0.60 0.65 0.74 0.73 0.74 0.65 0.65 0.63 0.61 0.67 0.68 0.72 0.78 0.77 0.75 0.73 0.86 1.05 1.19 1.34 1.54 1.66 1.47 1.27 1.16 1.20 1.24 1.33 1.51 1.68 1.83 1.95
0.21 0.19 0.22 0.27 0.26 0.22 0.19 0.20 0.21 0.33 0.45 0.50 0.64 0.61 0.64 0.77 0.84 0.79 0.61 0.63 0.68 0.64 0.68 0.70 0.74 0.76 0.75 0.72 0.89 1.14 1.20 1.24 1.38 1.50 1.48 1.35 1.16 1.14 1.21 1.30 1.45 1.55 1.60 1.66
0.35 0.39 0.44 0.36 0.32 0.28 0.26 0.31 0.31 0.35 0.41 0.51 0.69 0.65 0.53 0.54 0.62 0.71 0.72 0.73 0.70 0.70 0.69 0.67 0.66 0.71 0.72 0.75 0.90 1.09 1.17 1.25 1.45 1.62 1.61 1.54 1.45 1.38 1.43 1.50 1.50 1.50 1.54 1.57
0.56 0.57 0.48 0.46 0.46 0.46 0.49 0.60 0.53 0.48 0.47 0.52 0.55 0.62 0.68 0.59 0.53 0.59 0.64 0.76 0.77 0.73 0.73 0.73 0.73 0.76 0.79 0.83 1.00 1.20 1.32 1.42 1.52 1.68 1.73 1.73 1.79 1.83 1.86 1.84 1.71 1.65 1.67 1.72
0.65 0.74 0.73 0.70 0.59 0.52 0.64 1.00 0.91 0.73 0.61 0.59 0.60 0.88 1.02 0.86 0.70 0.67 0.64 0.75 0.85 0.85 0.78 0.76 0.78 0.89 1.05 1.14 1.24 1.33 1.48 1.61 1.67 1.84 1.94 1.91 1.99 2.10 2.17 2.19 2.10 2.08 1.98 1.88
0.74 0.83 0.87 0.80 0.61 0.62 1.11 1.43 1.09 0.92 0.83 0.78 0.84 0.87 0.89 0.79 0.71 0.74 0.69 0.72 0.80 0.96 0.87 0.81 0.85 1.03 1.24 1.32 1.43 1.48 1.56 1.66 1.76 1.96 2.14 2.26 2.41 2.51 2.48 2.44 2.44 2.36 2.15 2.02
0.94 1.13 1.18 0.79 0.76 1.04 1.26 1.12 1.11 1.12 1.17 1.15 1.00 0.80 0.72 0.71 0.65 0.67 0.66 0.67 0.68 0.74 0.81 0.84 0.92 1.12 1.31 1.35 1.38 1.53 1.65 1.79 1.98 2.12 2.16 2.23 2.51 2.59 2.55 2.49 2.38 2.26 2.13 1.94
1.13 1.28 1.07 0.85 0.94 0.97 1.08 1.17 1.21 1.21 1.24 1.15 1.00 0.86 0.76 0.73 0.65 0.62 0.59 0.63 0.68 0.72 0.80 0.90 1.02 1.22 1.48 1.54 1.50 1.50 1.65 1.86 2.07 2.18 2.33 2.47 2.58 2.52 2.47 2.46 2.35 2.21 2.10 1.92
1.27 1.27 1.03 0.98 1.01 0.97 1.03 1.08 1.19 1.13 1.06 1.03 1.00 0.88 0.77 0.68 0.59 0.58 0.61 0.64 0.68 0.74 0.82 0.95 1.11 1.26 1.48 1.45 1.39 1.45 1.49 1.63 1.78 1.87 1.95 2.10 2.27 2.22 2.12 2.12 2.15 2.12 2.05 1.96
1.39 1.40 1.31 1.24 1.22 1.10 1.00 0.95 0.91 0.92 0.92 0.95 0.94 0.92 0.78 0.67 0.60 0.54 0.57 0.60 0.65 0.78 0.95 1.04 1.15 1.24 1.27 1.28 1.31 1.34 1.32 1.37 1.46 1.54 1.64 1.77 1.87 1.94 1.90 1.87 1.81 1.80 1.78 1.76
1.56 1.39 1.37 1.50 1.35 1.21 1.03 0.95 0.88 0.83 0.84 0.86 0.87 0.88 0.76 0.69 0.65 0.56 0.51 0.56 0.66 0.76 0.88 0.97 1.09 1.28 1.34 1.31 1.36 1.41 1.37 1.34 1.34 1.39 1.46 1.51 1.59 1.60 1.57 1.46 1.35 1.26 1.20 1.20
1.26 1.18 1.18 1.25 1.19 1.10 1.02 1.02 1.05 0.99 0.91 0.86 0.85 0.82 0.72 0.67 0.64 0.58 0.56 0.60 0.69 0.71 0.76 0.85 0.98 1.15 1.30 1.44 1.47 1.50 1.45 1.38 1.34 1.29 1.29 1.35 1.40 1.45 1.45 1.29 1.11 0.97 0.87 0.84
1.13 1.08 1.18 1.17 1.13 1.04 1.00 1.04 1.08 0.99 0.94 0.90 0.88 0.81 0.73 0.67 0.65 0.64 0.60 0.61 0.66 0.68 0.70 0.81 0.92 1.01 1.11 1.31 1.46 1.50 1.46 1.39 1.31 1.25 1.20 1.21 1.24 1.26 1.33 1.40 1.30 1.11 0.91 0.76
1.34 1.18 1.18 1.18 1.19 1.11 0.98 0.99 0.99 0.92 0.84 0.83 0.82 0.80 0.73 0.68 0.63 0.62 0.59 0.57 0.63 0.69 0.70 0.79 0.90 0.96 1.07 1.19 1.28 1.30 1.29 1.23 1.17 1.16 1.16 1.16 1.18 1.18 1.17 1.24 1.25 1.19 1.05 0.87
1.32 1.18 1.06 1.08 1.12 1.14 1.05 0.96 0.92 0.90 0.84 0.76 0.74 0.68 0.62 0.56 0.54 0.55 0.54 0.56 0.65 0.72 0.76 0.88 0.95 0.99 1.12 1.22 1.26 1.26 1.25 1.18 1.09 1.09 1.14 1.15 1.15 1.15 1.12 1.18 1.19 1.19 1.09 0.91
1.31 1.23 1.05 0.91 0.90 0.96 0.97 0.88 0.79 0.78 0.77 0.71 0.67 0.63 0.56 0.52 0.54 0.53 0.50 0.52 0.61 0.70 0.79 0.95 1.02 1.02 1.14 1.27 1.34 1.31 1.22 1.11 0.97 0.94 0.97 1.03 1.07 1.07 1.05 1.07 1.07 1.10 1.00 0.80
1.08 1.05 0.98 0.88 0.79 0.79 0.85 0.81 0.73 0.73 0.75 0.67 0.60 0.61 0.61 0.63 0.73 0.76 0.72 0.68 0.70 0.69 0.72 0.85 0.93 1.01 1.10 1.21 1.27 1.27 1.22 1.12 0.99 0.87 0.84 0.91 0.96 0.99 0.99 0.98 0.98 0.99 0.90 0.71
0.93 0.98 0.93 0.85 0.80 0.76 0.83 0.81 0.78 0.76 0.73 0.66 0.59 0.60 0.65 0.74 0.85 0.92 0.91 0.91 0.93 0.90 0.82 0.79 0.86 0.91 1.00 1.07 1.10 1.15 1.12 1.06 0.96 0.79 0.76 0.82 0.88 0.96 0.96 0.90 0.91 0.90 0.82 0.70
0.95 1.00 0.92 0.84 0.89 0.91 0.93 0.89 0.82 0.78 0.72 0.68 0.68 0.70 0.75 0.80 0.90 0.98 0.97 0.95 0.94 0.97 0.91 0.81 0.78 0.79 0.84 0.90 0.94 0.98 0.97 0.98 0.94 0.77 0.72 0.83 0.92 0.98 0.94 0.85 0.85 0.83 0.74 0.71
0.90 0.91 0.85 0.74 0.74 0.75 0.73 0.72 0.72 0.73 0.76 0.81 0.91 1.01 1.03 0.96 0.96 1.08 1.16 1.05 0.87 0.87 0.86 0.81 0.72 0.71 0.72 0.82 0.86 0.88 0.87 0.87 0.91 0.82 0.76 0.83 0.91 0.96 0.93 0.85 0.80 0.73 0.67 0.69
0.83 0.83 0.81 0.75 0.68 0.62 0.54 0.53 0.59 0.67 0.77 0.86 0.93 1.06 1.17 1.20 1.20 1.17 1.07 1.04 0.95 0.92 0.81 0.71 0.64 0.62 0.61 0.66 0.76 0.80 0.79 0.78 0.82 0.80 0.77 0.81 0.89 0.91 0.89 0.81 0.74 0.67 0.64 0.66
0.79 0.78 0.76 0.69 0.68 0.63 0.57 0.55 0.53 0.59 0.69 0.78 0.89 1.09 1.22 1.24 1.31 1.45 1.26 0.96 0.87 0.88 0.80 0.67 0.62 0.58 0.52 0.48 0.62 0.71 0.72 0.76 0.79 0.78 0.75 0.71 0.71 0.74 0.75 0.68 0.64 0.63 0.67 0.69
0.82 0.75 0.78 0.75 0.67 0.58 0.57 0.56 0.58 0.61 0.65 0.68 0.76 0.96 1.18 1.32 1.27 1.15 1.11 0.99 0.84 0.76 0.70 0.65 0.56 0.52 0.50 0.44 0.51 0.60 0.65 0.70 0.68 0.66 0.64 0.62 0.65 0.69 0.66 0.63 0.61 0.63 0.68 0.70
0.80 0.75 0.76 0.79 0.76 0.72 0.70 0.68 0.70 0.70 0.73 0.73 0.72 0.77 0.89 1.10 1.26 1.09 0.91 0.84 0.79 0.68 0.65 0.65 0.57 0.50 0.45 0.41 0.43 0.50 0.56 0.60 0.59 0.59 0.57 0.60 0.64 0.63 0.58 0.56 0.58 0.61 0.65 0.68
0.75 0.74 0.75 0.75 0.76 0.78 0.80 0.85 0.93 0.93 0.96 1.01 0.91 0.83 0.84 0.91 1.02 1.02 0.89 0.78 0.72 0.68 0.61 0.62 0.60 0.55 0.49 0.48 0.46 0.49 0.55 0.61 0.63 0.60 0.55 0.59 0.58 0.55 0.55 0.57 0.54 0.55 0.58 0.58
0.73 0.68 0.69 0.72 0.75 0.78 0.88 0.99 1.10 1.15 1.20 1.27 1.21 1.03 0.93 0.87 0.91 0.92 0.87 0.80 0.76 0.72 0.68 0.65 0.61 0.59 0.56 0.53 0.48 0.47 0.53 0.60 0.64 0.64 0.64 0.65 0.66 0.65 0.61 0.58 0.53 0.50 0.49 0.45